This is the latest recevied weather packets stored in our database for station/object W2IRT. If no packets are shown the sender has not sent any weather packets the latest 10 day(s).
| Time | Temp. | Humidity | Pressure | Rain* | Wind** | Luminosity | Snow |
|---|---|---|---|---|---|---|---|
| 1778222716 | 9.44° C | 76% | 1010.8 hPa | 0.25 mm | - | - | - |
| 1778222416 | 9.44° C | 76% | 1010.8 hPa | 0.25 mm | - | - | - |
| 1778222116 | 10° C | 76% | 1010.9 hPa | 0.25 mm | - | - | - |
| 1778221816 | 10° C | 75% | 1011 hPa | 0.25 mm | - | - | - |
| 1778221516 | 10° C | 75% | 1011.3 hPa | 0.25 mm | - | - | - |
| 1778221216 | 10° C | 75% | 1011.4 hPa | 0.25 mm | - | - | - |
| 1778220916 | 10° C | 74% | 1011.4 hPa | 0.25 mm | - | - | - |
| 1778220616 | 10° C | 74% | 1011.4 hPa | 0.25 mm | - | - | - |
| 1778220316 | 10.56° C | 71% | 1011.5 hPa | 0.25 mm | - | - | - |
| 1778220016 | 10.56° C | 71% | 1011.4 hPa | 0.25 mm | - | - | - |
| 1778219731 | 10.56° C | 68% | 1011.4 hPa | 0.25 mm | - | - | - |
| 1778219416 | 11.11° C | 66% | 1011.4 hPa | 0 mm | - | - | - |
| 1778219116 | 10.56° C | 64% | 1011.2 hPa | 0 mm | - | - | - |
| 1778218816 | 10.56° C | 66% | 1010.9 hPa | 0 mm | - | - | - |
| 1778218516 | 10.56° C | 68% | 1010.7 hPa | 0 mm | - | - | - |
| 1778218216 | 10.56° C | 68% | 1010.6 hPa | 0 mm | - | - | - |
| 1778217916 | 10.56° C | 68% | 1009.8 hPa | 0 mm | - | - | - |
| 1778217615 | 10.56° C | 67% | 1009.1 hPa | 0 mm | - | - | - |
| 1778217316 | 10.56° C | 66% | 1008.9 hPa | 0 mm | - | - | - |
| 1778217016 | 10.56° C | 65% | 1008.8 hPa | 0 mm | - | - | - |
| 1778216716 | 10.56° C | 66% | 1008.8 hPa | 0 mm | - | - | - |
| 1778216416 | 11.11° C | 66% | 1008.9 hPa | 0 mm | - | - | - |
| 1778216116 | 11.11° C | 65% | 1008.9 hPa | 0 mm | - | - | - |
| 1778215815 | 11.11° C | 64% | 1008.8 hPa | 0 mm | - | - | - |
| 1778215515 | 11.11° C | 65% | 1008.8 hPa | 0 mm | - | - | - |
* Rain latest hour (hover to see other rain measurements)
** Current wind speed in m/s (hover to see current wind gust speed)